TIANMU-1 09

Last updated on Sun Oct 06 2024 00:02:18 GMT+0000 (Coordinated Universal Time)

1 57401U 23101C 24279.51482517 .00020392 00000+0 95997-3 0 9998 2 57401 97.3447 333.2911 0008159 154.3772 205.7869 15.19538423 67165
UTC large
Height (km)
Speed (km/s)
/
Latitude / Longitude
Inclination (degrees)
Orbital Period (minutes)
Azimuth
Elevation
Range (km)
Doppler Factor

Next 0 passes for location: London (51.5072 / 0.1276)

Sorry there are no passes over London.